Flagstaff, AZ

2:34 PM MST on June 27, 2017 (GMT -0700)
Flagstaff Pulliam

Weather History for KFLG - May, 2013

Change the Weather History Date:

Wednesday, May 1, 2013

  Actual Average Record
Temperature  
Mean Temperature 52 °F 48 °F  
Max Temperature 71 °F 63 °F 80 °F (1947)
Min Temperature 33 °F 32 °F 17 °F (1967)
Degree Days  
Heating Degree Days 13 17  
Month to date heating degree days 13 17  
Since 1 July heating degree days 6256 6373  
Cooling Degree Days 0 0  
Month to date cooling degree days 0 0  
Year to date cooling degree days 0 0  
Growing Degree Days 2 (Base 50)    
Moisture  
Dew Point 9 °F    
Average Humidity 25    
Maximum Humidity 43    
Minimum Humidity 7    
Precipitation  
Precipitation 0.00 in 0.03 in 0.77 in (1915)
Month to date precipitation 0.00 0.03  
Year to date precipitation 5.00 7.51  
Snow  
Snow 0.00 in 0.10 in 5.00 in (1915)
Month to date snowfall 0.0 0.1  
Since 1 July snowfall 69.7 101.1  
Snow Depth 0.00 in    
Sea Level Pressure  
Sea Level Pressure 29.93 in    
Wind  
Wind Speed 8 mph (West)    
Max Wind Speed 23 mph    
Max Gust Speed 35 mph    
Visibility 10 miles    
Events      
T = Trace of Precipitation, MM = Missing Value Source: NWS Daily Summary

Daily Weather History Graph

Daily Weather History Graph

Search for Another Location

Airport or City:

Trip Planner

Search our weather history database for the weather conditions in past years. The results will help you decide how hot, cold, wet, or windy it might be!

Date:

Astronomy

May. 01, 2013 Rise Set
Actual Time 5:35 AM MST 7:12 PM MST
Civil Twilight 5:08 AM MST 7:39 PM MST
Nautical Twilight 4:35 AM MST 8:12 PM MST
Astronomical Twilight 4:01 AM MST 8:47 PM MST
Moon 12:24 AM MST (5/1) 11:17 AM MST (5/1)
Length of Visible Light 14h 31m
Length of Day
13h 37m
Waning Gibbous, 58% of the Moon is Illuminated
May 1
Waning Gibbous
May 2
Last Quarter
May 9
New
May 17
First Quarter
May 24
Full

Hourly Weather History & Observations

Time (MST) Temp. Windchill Dew Point Humidity Pressure Visibility Wind Dir Wind Speed Gust Speed Precip Events Conditions
12:57 AM 54.0 °F - 10.0 °F 17% 29.73 in 10.0 mi WSW 12.7 mph 19.6 mph N/A   Clear
1:57 AM 48.9 °F - 10.9 °F 22% 29.77 in 10.0 mi WSW 5.8 mph - N/A   Clear
2:57 AM 42.1 °F 39.2 °F 10.9 °F 28% 29.81 in 10.0 mi WSW 4.6 mph - N/A   Clear
3:57 AM 37.9 °F - 10.9 °F 33% 29.85 in 10.0 mi Calm Calm - N/A   Clear
4:57 AM 36.0 °F - 12.0 °F 37% 29.87 in 10.0 mi Calm Calm - N/A   Clear
5:57 AM 33.1 °F - 14.0 °F 46% 29.91 in 10.0 mi Calm Calm - N/A   Clear
6:57 AM 45.0 °F - 17.1 °F 33% 29.90 in 10.0 mi Calm Calm - N/A   Clear
7:57 AM 55.0 °F - 14.0 °F 20% 29.88 in 10.0 mi SW 10.4 mph - N/A   Clear
8:57 AM 60.1 °F - 17.1 °F 19% 29.87 in 10.0 mi SW 8.1 mph - N/A   Clear
9:57 AM 64.0 °F - 21.9 °F 20% 29.87 in 10.0 mi SW 11.5 mph - N/A   Clear
10:57 AM 66.0 °F - 25.0 °F 21% 29.88 in 10.0 mi West 6.9 mph 17.3 mph N/A   Clear
11:57 AM 66.9 °F - 21.9 °F 18% 29.88 in 10.0 mi Variable 3.5 mph - N/A   Clear
12:57 PM 66.9 °F - 21.9 °F 18% 29.88 in 10.0 mi Calm Calm - N/A   Partly Cloudy
1:57 PM 70.0 °F - 21.0 °F 16% 29.91 in 10.0 mi West 8.1 mph 21.9 mph N/A   Clear
2:57 PM 69.1 °F - 12.0 °F 11% 29.95 in 10.0 mi West 11.5 mph 23.0 mph N/A   Clear
3:57 PM 68.0 °F - 10.0 °F 11% 29.98 in 10.0 mi WNW 12.7 mph 20.7 mph N/A   Clear
4:57 PM 66.9 °F - 8.1 °F 10% 29.99 in 10.0 mi NW 11.5 mph 18.4 mph N/A   Clear
5:57 PM 64.9 °F - 3.0 °F 9% 30.02 in 10.0 mi NW 6.9 mph - N/A   Clear
6:57 PM 59.0 °F - -5.1 °F 7% 30.02 in 10.0 mi NW 6.9 mph - N/A   Clear
7:57 PM 55.0 °F - -9.9 °F 7% 30.03 in 10.0 mi North 3.5 mph - N/A   Clear
8:57 PM 51.1 °F - -9.0 °F 8% 30.05 in 10.0 mi SSE 4.6 mph - N/A   Clear
9:57 PM 48.0 °F - -5.1 °F 11% 30.06 in 10.0 mi ENE 16.1 mph 21.9 mph N/A   Clear
10:57 PM 45.0 °F 37.4 °F -5.1 °F 12% 30.10 in 10.0 mi ENE 18.4 mph 29.9 mph N/A   Clear
11:57 PM 42.1 °F 33.9 °F -6.0 °F 13% 30.14 in 10.0 mi East 17.3 mph 27.6 mph N/A   Clear